• In Hungary
  • List of Countries
  • For 7 days
  • Water Temperature
  • Satellite Maps
  • Weather Map
  • News
  • Weather Widgets
  • user-avatar
    Login

    Hourly Weather Klagenfurt

    Today, 12 December, Tuesday

    Time Temperature Precipitation Wind Pressure Humidity
    00:00 +6°C° 1.6 mm 5 mps 676 mmHg 89%
    01:00 +6°C° 0 mm 4 mps 676 mmHg 89%
    02:00 +6°C° 2.4 mm 4 mps 676 mmHg 90%
    03:00 +6°C° 2.4 mm 4 mps 677 mmHg 90%
    04:00 +6°C° 2.4 mm 5 mps 677 mmHg 91%
    05:00 +6°C° 2.8 mm 5 mps 678 mmHg 92%
    06:00 +6°C° 2.8 mm 4 mps 679 mmHg 92%
    07:00 +6°C° 0 mm 5 mps 679 mmHg 93%
    08:00 +6°C° 1 mm 4 mps 680 mmHg 92%
    09:00 +6°C° 1 mm 4 mps 681 mmHg 91%
    10:00 +5°C° 1 mm 3 mps 682 mmHg 90%
    11:00 +7°C° 0.1 mm 3 mps 682 mmHg 87%
    12:00 +7°C° 0.1 mm 3 mps 683 mmHg 84%
    13:00 +7°C° 0 mm 2 mps 684 mmHg 84%
    14:00 +6°C° 0.1 mm 2 mps 684 mmHg 86%
    15:00 +5°C° 0.1 mm 2 mps 684 mmHg 89%
    16:00 +6°C° 0.1 mm 1 mps 684 mmHg 92%
    17:00 +5°C° 0.1 mm 1 mps 685 mmHg 92%
    18:00 +5°C° 0.1 mm 1 mps 685 mmHg 93%
    19:00 +5°C° 0.1 mm 1 mps 686 mmHg 94%
    20:00 +4°C° 0.3 mm 1 mps 686 mmHg 94%
    21:00 +4°C° 0.3 mm 1 mps 687 mmHg 94%
    22:00 +4°C° 0.3 mm 1 mps 687 mmHg 94%
    23:00 +4°C° 0.6 mm 1 mps 687 mmHg 94%

    Tomorrow, 13 December, Wednesday

    Time Temperature Precipitation Wind Pressure Humidity
    00:00 +4°C° 0.6 mm 1 mps 688 mmHg 94%
    01:00 +3°C° 0.6 mm 1 mps 688 mmHg 94%
    02:00 +3°C° 0.9 mm 1 mps 688 mmHg 93%
    03:00 +3°C° 0.9 mm 1 mps 689 mmHg 93%
    04:00 +2°C° 0.9 mm 1 mps 689 mmHg 92%
    05:00 +2°C° 0.7 mm 1 mps 689 mmHg 92%
    06:00 +1°C° 0.7 mm 1 mps 689 mmHg 92%
    07:00 +1°C° 0.7 mm 1 mps 689 mmHg 92%
    08:00 +1°C° 0.4 mm 1 mps 690 mmHg 91%
    09:00 +1°C° 0.4 mm 1 mps 690 mmHg 90%
    10:00 +1°C° 0.4 mm 1 mps 690 mmHg 89%
    11:00 +1°C° 0.2 mm 1 mps 690 mmHg 88%
    12:00 +2°C° 0.2 mm 1 mps 689 mmHg 87%
    13:00 +2°C° 0.2 mm 1 mps 689 mmHg 86%
    14:00 +2°C° 0.1 mm 1 mps 688 mmHg 88%
    15:00 +1°C° 0.1 mm 1 mps 688 mmHg 90%
    16:00 +1°C° 0.1 mm 1 mps 688 mmHg 92%
    17:00 +1°C° 0 mm 1 mps 687 mmHg 92%
    18:00 0°C° 0 mm 1 mps 687 mmHg 93%
    19:00 0°C° 0 mm 1 mps 687 mmHg 94%
    20:00 0°C° 0 mm 1 mps 686 mmHg 94%
    21:00 0°C° 0 mm 1 mps 686 mmHg 94%
    22:00 0°C° 0 mm 1 mps 685 mmHg 95%
    23:00 0°C° 0 mm 1 mps 685 mmHg 95%

    Day after tomorrow, 14 December, Thursday

    Time Temperature Precipitation Wind Pressure Humidity
    00:00 -2°C° 0 mm 2 mps 684 mmHg 95%
    01:00 -2°C° 0 mm 2 mps 684 mmHg 94%
    02:00 -2°C° 0 mm 2 mps 683 mmHg 94%
    03:00 -1°C° 0 mm 2 mps 683 mmHg 93%
    04:00 -1°C° 0 mm 2 mps 682 mmHg 92%
    05:00 -1°C° 0 mm 2 mps 682 mmHg 92%
    06:00 -1°C° 0 mm 2 mps 682 mmHg 92%
    07:00 -2°C° 0 mm 2 mps 682 mmHg 92%
    08:00 -1°C° 0 mm 2 mps 682 mmHg 91%
    09:00 +1°C° 0 mm 2 mps 682 mmHg 89%
    10:00 +2°C° 0 mm 2 mps 683 mmHg 88%
    11:00 +2°C° 0 mm 2 mps 682 mmHg 87%
    12:00 +3°C° 0 mm 2 mps 682 mmHg 86%
    13:00 +4°C° 0 mm 2 mps 682 mmHg 85%
    14:00 +4°C° 0 mm 1 mps 682 mmHg 88%
    15:00 +4°C° 0 mm 1 mps 682 mmHg 90%
    16:00 +3°C° 0 mm 1 mps 682 mmHg 92%
    17:00 +3°C° 0 mm 1 mps 682 mmHg 93%
    18:00 +2°C° 0 mm 1 mps 682 mmHg 94%
    19:00 +2°C° 0 mm 1 mps 681 mmHg 94%
    20:00 +2°C° 0 mm 1 mps 681 mmHg 94%
    21:00 +2°C° 0 mm 1 mps 680 mmHg 95%
    22:00 +3°C° 0 mm 1 mps 680 mmHg 95%
    23:00 +2°C° 0.1 mm 2 mps 679 mmHg 94%

    15 December, Friday

    Time Temperature Precipitation Wind Pressure Humidity
    00:00 +2°C° 0.1 mm 2 mps 679 mmHg 94%
    01:00 +2°C° 0.1 mm 2 mps 678 mmHg 94%
    02:00 +3°C° 0.2 mm 2 mps 678 mmHg 94%
    03:00 +3°C° 0.2 mm 2 mps 677 mmHg 94%
    04:00 +3°C° 0.2 mm 2 mps 677 mmHg 94%
    05:00 +4°C° 1 mm 2 mps 676 mmHg 94%
    06:00 +4°C° 1 mm 2 mps 676 mmHg 94%
    07:00 +4°C° 1 mm 2 mps 676 mmHg 94%
    08:00 +4°C° 1.6 mm 2 mps 676 mmHg 94%
    09:00 +3°C° 1.6 mm 3 mps 677 mmHg 93%
    10:00 +2°C° 1.6 mm 3 mps 677 mmHg 92%
    11:00 +2°C° 1.3 mm 3 mps 677 mmHg 91%
    12:00 +3°C° 1.3 mm 2 mps 677 mmHg 90%
    13:00 +2°C° 1.3 mm 2 mps 677 mmHg 90%
    14:00 +2°C° 1.4 mm 2 mps 677 mmHg 91%
    15:00 +2°C° 1.4 mm 1 mps 677 mmHg 92%
    16:00 +1°C° 1.4 mm 1 mps 677 mmHg 93%
    17:00 +1°C° 1.7 mm 1 mps 678 mmHg 94%
    18:00 0°C° 1.7 mm 1 mps 678 mmHg 94%
    19:00 0°C° 1.7 mm 1 mps 678 mmHg 94%
    20:00 0°C° 0.7 mm 1 mps 679 mmHg 94%
    21:00 0°C° 0.7 mm 1 mps 679 mmHg 94%
    22:00 -1°C° 0.7 mm 1 mps 679 mmHg 93%
    23:00 -1°C° 0.3 mm 1 mps 680 mmHg 93%

    16 December, Saturday

    Time Temperature Precipitation Wind Pressure Humidity
    00:00 -1°C° 0.3 mm 1 mps 680 mmHg 93%
    01:00 -1°C° 0.3 mm 1 mps 680 mmHg 93%
    02:00 -2°C° 0 mm 1 mps 680 mmHg 93%
    03:00 -2°C° 0 mm 1 mps 680 mmHg 92%
    04:00 -3°C° 0 mm 1 mps 680 mmHg 92%
    05:00 -3°C° 0 mm 1 mps 681 mmHg 91%
    06:00 -4°C° 0 mm 1 mps 681 mmHg 90%
    07:00 -4°C° 0 mm 1 mps 682 mmHg 89%
    08:00 -3°C° 0 mm 1 mps 683 mmHg 87%
    09:00 -2°C° 0 mm 1 mps 683 mmHg 85%
    10:00 0°C° 0 mm 1 mps 684 mmHg 84%
    11:00 +1°C° 0 mm 1 mps 684 mmHg 81%
    12:00 +1°C° 0 mm 1 mps 684 mmHg 79%
    13:00 +2°C° 0 mm 1 mps 685 mmHg 77%
    14:00 +1°C° 0 mm 1 mps 685 mmHg 79%
    15:00 0°C° 0 mm 1 mps 685 mmHg 81%
    16:00 -1°C° 0 mm 1 mps 685 mmHg 83%
    17:00 -2°C° 0 mm 1 mps 685 mmHg 83%
    18:00 -3°C° 0 mm 1 mps 686 mmHg 83%
    19:00 -4°C° 0 mm 1 mps 686 mmHg 83%
    20:00 -4°C° 0 mm 1 mps 686 mmHg 82%
    21:00 -4°C° 0 mm 1 mps 687 mmHg 82%
    22:00 -4°C° 0 mm 1 mps 687 mmHg 81%
    23:00 -6°C° 0 mm 1 mps 687 mmHg 81%

    17 December, Sunday

    Time Temperature Precipitation Wind Pressure Humidity
    00:00 -6°C° 0 mm 1 mps 687 mmHg 80%
    01:00 -6°C° 0 mm 1 mps 687 mmHg 80%
    02:00 -6°C° 0 mm 1 mps 687 mmHg 80%
    03:00 -6°C° 0 mm 1 mps 687 mmHg 79%
    04:00 -7°C° 0 mm 1 mps 687 mmHg 79%
    05:00 -7°C° 0 mm 1 mps 688 mmHg 78%
    06:00 -6°C° 0 mm 1 mps 688 mmHg 78%
    07:00 -6°C° 0 mm 1 mps 689 mmHg 78%
    08:00 -4°C° 0 mm 1 mps 689 mmHg 77%
    09:00 -3°C° 0 mm 1 mps 690 mmHg 76%
    10:00 -2°C° 0 mm 1 mps 691 mmHg 74%
    11:00 -1°C° 0 mm 1 mps 691 mmHg 72%
    12:00 0°C° 0 mm 1 mps 691 mmHg 70%
    13:00 +1°C° 0 mm 1 mps 691 mmHg 68%
    14:00 0°C° 0 mm 1 mps 691 mmHg 72%
    15:00 -1°C° 0 mm 1 mps 692 mmHg 76%
    16:00 -2°C° 0 mm 1 mps 692 mmHg 79%
    17:00 -3°C° 0 mm 1 mps 692 mmHg 80%
    18:00 -3°C° 0 mm 1 mps 693 mmHg 81%
    19:00 -4°C° 0 mm 1 mps 693 mmHg 82%
    20:00 -4°C° 0 mm 1 mps 693 mmHg 81%
    21:00 -6°C° 0 mm 1 mps 694 mmHg 81%
    22:00 -6°C° 0 mm 1 mps 694 mmHg 81%
    23:00 -6°C° 0 mm 1 mps 694 mmHg 81%
    Show more